SCP
0 0 0 0 0 0 0 0 0 -0 -0 -0 -0 0 0 0 -0 -0 -0 -0 0 0 0 0 0 0 0 0 0 0 0 0 0 0 0 0 0 0
0 0 0 0 0 0 0 0 0 0 0 0 0 0 0 0 -0 -0 -0 -0 -0 -0 -0 -0 -0 0 0 0 0 0 0 0 0 0 0 0 0 0
0 0 0 0 0 0 0 0 0 0 0 0 0 0 0 0 -0 -0 -0 -0 -0 -0 -0 -0 -0 -0 -0 -0 -0 0 0 0 0 0 0 0 0 0
0 0 0 0 0 0 0 0 0 0 0 0 0 0 0 -0 -0 -0 -0 -0 -0 -0 -0 -0 -0 -0 -0 -0 -0 -0 -0 0 0 0 0 0 0 0
0 0 0 0 0 0 0 0 0 0 0 0 0 0 0 -0 -0 -0 -0 -0 -0 -0 -0 -0 -0 -0 -0 -0 -0 -0 -0 -0 0 0 0 0 0 0
0 0 0 0 0 0 0 0 0 0 0 0 0 0 0 0 -0 -0 -0 -0 -0 -0 -0 -0 -0 -0 -0 -0 0 0 0 0 0 0 0 0 0 0
0 0 0 0 0 0 0 0 0 0 0 0 0 0 0 0 0 0 0 0 0 -0 -0 0 0 0 0 -0 -0 0 0 0 0 0 0 0 0 0
0 0 0 0 0 0 0 0 0 0 0 0 0 0 0 0 0 0 0 0 0 0 0 0 0 0 0 0 0 0 0 0 0 0 0 0 0 0
0 0 0 0 0 0 0 0 0 0 0 0 0 0 0 0 0 0 0 0 0 0 0 0 0 0 0 0 0 0 0 0 0 0 0 0 0 0
0 0 0 0 0 0 0 0 0 0 0 0 0 0 0 0 0 0 0 0 0 0 0 0 0 0 0 0 0 0 0 0 0 0 0 0 0 0
0 0 0 0 0 0 0 0 0 0 0 0 0 0 0 0 0 0 0 0 0 0 0 0 0 0 0 0 0 0 0 0 0 0 0 0 0 0
0 0 0 0 0 0 0 0 0 0 0 0 0 0 0 0 0 0 0 0 0 0 0 0 0 0 0 0 0 0 0 0 0 0 0 0 0 0
0 0 0 0 0 0 0 0 0 0 0 0 0 0 0 0 0 0 0 0 0 0 0 0 0 0 0 0 0 0 0 0 0 0 0 0 0 0
0 0 0 0 0 0 0 0 0 0 0 0 0 0 0 0 0 0 0 0 0 0 0 0 0 0 0 0 0 0 0 0 0 0 0 0 0 0
0 0 0 0 0 0 0 0 0 0 0 0 0 0 0 0 0 0 0 0 0 0 0 0 0 0 0 0 0 0 -0 0 0 -0 -0 0 0 0
0 0 0 0 0 0 0 0 0 0 0 0 0 0 0 0 0 0 0 0 0 0 0 0 0 0 0 0 0 -0 0 -0 0 0 0 0 0 0
0 0 0 0 0 0 0 0 0 0 0 0 0 0 0 0 0 0 0 0 0 0 0 0 0 0 0 0 -0 0 -0 0 -0 0 -0 0 0 0
0 0 0 0 0 0 0 0 0 0 0 0 0 0 0 0 0 0 0 0 0 0 0 0 0 0 0 0 -0 -0 0 0 -0 -0 0 0 0 0
0 0 0 0 0 0 0 0 0 0 0 0 0 0 0 0 0 0 0 0 0 0 0 0 0 0 0 0 0 -0 -0 -0 -0 0 0 0 0 0
0 0 0 0 0 0 0 0 0 0 0 0 0 0 0 0 0 0 0 0 0 0 0 0 0 0 -0 0 0 0 -0 -0 0 0 0 0 0 0
0 0 0 0 0 0 0 0 0 0 0 0 0 0 0 0 0 0 0 0 0 0 0 0 0 0 -0 -0 -0 -0 0 -0 0 0 0 0 0 0
0 0 0 0 0 0 0 0 0 0 0 0 0 0 0 0 0 0 0 0 0 0 0 0 0 0 -0 -0 -0 0 0 0 0 0 0 0 0 0
0 0 0 0 0 0 0 0 0 0 0 0 0 0 0 0 0 0 0 0 0 0 0 0 0 0 0 -0 -0 -0 0 0 0 0 0 0 0 0
Wind_Speed_500mb
24 24 27 31 32 34 38 44 48 47 62 35 78 89 94 95 95 94 94 94 95 94 90 88 83 77 76 73 73 77 82 89 90 92 95 78 86 86
28 29 30 32 35 38 43 44 46 56 46 81 89 93 97 98 100 101 100 100 97 94 91 84 78 78 78 77 76 78 78 78 83 92 99 85 85 65
27 29 31 33 38 43 46 50 56 59 75 90 89 93 98 103 105 104 106 103 102 97 80 73 74 76 75 74 75 79 80 83 83 82 88 97 98 95
28 31 34 38 43 46 50 55 57 63 72 90 94 98 99 101 105 109 108 107 105 105 84 95 83 74 72 74 75 76 79 79 86 88 85 88 93 100
32 34 38 43 46 49 52 56 59 63 71 83 96 95 101 103 109 109 111 112 110 110 112 101 94 76 82 76 75 76 80 78 81 89 92 91 87 92
34 35 42 46 47 50 51 54 59 68 74 78 87 95 98 100 102 114 127 118 122 117 108 104 94 96 94 83 74 74 73 79 82 86 88 89 88 87
36 39 44 46 45 48 48 51 58 67 72 73 82 91 93 100 102 108 113 125 120 83 116 119 117 111 104 84 86 87 79 86 88 87 86 86 84 89
39 42 46 47 47 52 50 43 50 64 64 70 78 80 84 90 100 98 95 103 124 117 122 124 109 107 105 107 91 77 89 101 98 94 96 93 88 86
43 45 47 45 50 52 54 56 70 66 62 68 71 71 83 90 89 97 95 95 107 118 104 109 111 117 108 101 98 95 97 93 93 97 104 98 88 87
43 47 50 47 53 47 55 72 74 74 74 67 58 71 80 78 71 76 79 90 103 105 84 89 104 107 109 119 105 97 83 83 90 90 93 91 87 85
45 48 51 47 52 48 62 75 80 80 76 60 71 77 74 71 67 68 79 82 96 104 95 87 100 100 107 117 97 85 93 98 86 84 82 78 74 72
48 51 54 51 48 54 62 73 82 78 76 87 84 79 74 73 69 66 69 74 79 94 90 83 99 91 90 106 101 110 102 88 83 81 64 61 63 66
52 56 56 54 52 61 61 73 70 68 82 83 85 83 79 77 75 73 68 65 73 81 82 70 87 94 83 92 118 111 90 92 81 77 60 63 65 65
54 58 56 48 63 67 73 69 60 68 76 78 79 80 81 83 81 78 75 69 66 70 74 57 77 86 85 98 106 104 94 85 80 70 64 70 68 65
55 57 56 70 75 77 74 72 69 69 69 72 75 77 77 80 80 81 80 77 73 71 60 55 62 77 76 85 91 91 87 100 77 81 79 72 70 59
59 64 68 73 75 76 78 75 70 66 65 67 72 74 76 78 79 77 84 85 85 81 67 59 61 73 81 79 74 74 74 90 86 75 72 62 55 57
56 67 74 77 80 79 77 74 71 68 67 66 69 73 75 78 77 74 75 79 81 84 85 74 71 78 75 67 59 54 76 80 70 70 56 47 44 44
65 72 75 76 76 75 75 75 72 71 69 68 69 70 74 77 77 74 72 72 79 78 80 77 80 93 84 71 40 55 75 75 68 63 44 24 8 17
66 70 72 72 72 71 71 71 73 71 69 67 68 69 71 74 74 74 71 72 75 75 75 73 70 78 74 76 82 60 65 68 63 46 34 8 30 42
69 71 71 70 69 68 68 69 70 69 65 63 64 66 70 72 73 69 68 70 73 74 78 73 66 73 70 72 72 67 45 51 50 28 21 34 42 57
70 70 68 66 65 64 63 63 62 61 60 63 66 67 69 70 71 67 65 64 67 68 76 77 67 66 58 55 50 48 38 30 21 26 18 40 55 69
68 67 65 61 57 56 56 56 57 58 61 62 64 69 71 71 71 67 61 63 65 65 74 73 64 62 56 50 46 39 36 36 19 5 21 26 27 27
63 62 57 52 50 50 51 55 59 61 62 62 67 68 70 73 68 62 59 57 61 63 73 75 62 57 54 45 39 33 28 31 26 12 5 15 12 45
Wind_Direction_500mb
4 2 358 354 348 344 341 344 347 335 329 329 321 333 335 335 337 335 334 333 332 331 330 328 325 322 315 307 297 294 294 292 285 277 269 273 252 257
360 355 351 346 343 340 338 338 336 333 318 324 331 333 335 335 337 337 336 335 334 334 331 329 325 320 318 312 304 298 298 297 292 282 276 280 256 256
349 347 343 340 340 338 338 337 336 336 329 325 328 332 333 335 335 335 335 336 334 334 330 321 319 315 312 307 302 298 291 288 290 289 280 273 269 253
344 341 341 343 339 338 339 338 335 334 332 328 332 335 335 336 334 335 334 334 332 333 327 328 324 317 314 309 304 298 293 285 282 284 286 278 267 264
346 343 341 340 338 338 337 334 334 333 336 332 329 334 336 338 334 333 332 332 332 331 331 331 330 319 318 312 306 301 296 288 280 280 280 281 278 266
345 342 341 339 338 337 337 337 335 336 334 332 331 332 334 335 333 333 330 332 330 331 332 332 324 320 322 319 314 310 306 297 294 283 285 284 279 274
344 342 341 338 338 338 337 339 333 331 331 330 327 329 331 334 333 331 326 327 327 331 328 322 325 323 322 317 315 311 304 299 294 290 290 288 281 272
342 341 340 339 337 338 337 334 325 327 329 327 324 324 328 326 325 324 320 322 321 325 325 322 324 319 316 314 313 303 296 295 290 286 284 286 284 277
340 342 340 339 340 339 343 323 328 331 329 325 324 324 318 322 322 321 320 319 316 318 324 319 321 317 318 314 310 306 303 300 295 288 284 285 287 279
337 342 342 340 340 344 328 322 328 330 329 325 319 310 315 318 313 313 314 315 314 318 321 311 320 317 316 312 311 311 308 304 298 292 286 283 281 278
338 340 340 338 338 335 322 325 326 327 323 317 315 316 316 318 321 318 323 322 319 318 322 320 319 315 312 314 316 311 309 313 311 303 291 285 279 278
335 337 339 333 334 329 325 322 322 325 321 317 317 316 318 321 326 328 326 321 318 316 324 319 315 316 315 312 311 310 321 320 323 320 295 287 284 286
331 334 333 331 328 326 323 321 320 317 313 315 316 319 321 323 327 329 329 323 319 313 320 314 316 313 310 308 309 316 321 325 323 319 313 303 294 280
329 328 329 325 321 321 320 320 316 314 316 316 319 322 324 324 326 327 329 327 323 317 322 328 310 314 311 311 308 318 319 324 321 318 312 301 290 277
326 323 321 322 320 320 322 322 321 321 322 322 322 323 323 323 323 326 328 329 324 327 331 329 316 320 316 310 310 316 317 323 324 315 313 305 294 279
324 321 319 318 319 320 322 326 327 327 326 324 322 323 323 325 326 330 330 331 329 328 333 335 327 332 322 323 319 315 316 321 326 324 321 311 298 293
308 315 320 322 324 326 327 327 328 329 329 327 325 324 325 325 326 328 331 331 332 332 333 337 338 335 331 333 325 323 324 332 335 334 325 307 279 268
316 321 322 324 326 328 328 328 330 331 330 328 326 326 326 326 326 327 331 334 333 334 335 338 339 337 336 336 340 330 339 340 339 338 321 322 41 143
318 322 324 326 329 328 328 330 330 330 329 329 328 328 327 328 327 327 330 334 334 335 336 339 334 335 329 324 333 344 335 341 340 341 338 14 74 98
323 324 326 328 329 329 330 330 329 332 334 331 330 330 331 330 328 328 329 332 334 336 335 339 338 332 326 318 321 333 353 351 348 357 47 87 93 105
324 326 327 327 329 330 332 333 335 338 338 335 333 332 333 332 331 329 327 330 334 337 328 334 337 337 332 332 331 336 345 341 355 9 99 110 104 106
323 322 324 327 330 333 336 336 337 339 339 336 334 333 332 331 332 329 327 328 332 337 328 334 338 341 341 338 332 328 327 342 335 23 134 131 120 116
321 322 326 329 333 335 335 335 335 336 337 335 334 333 332 332 333 330 327 327 331 336 333 335 337 342 340 337 333 332 326 336 347 339 150 166 162 155
Wind_Speed_850mb
24 24 27 31 32 34 38 44 48 47 62 35 78 89 94 95 95 94 94 94 95 94 90 88 83 77 76 73 73 77 82 89 90 92 95 78 86 86
28 29 30 32 35 38 43 44 46 56 46 81 89 93 97 98 100 101 100 100 97 94 91 84 78 78 78 77 76 78 78 78 83 92 99 85 85 65
27 29 31 33 38 43 46 50 56 59 75 90 89 93 98 103 105 104 106 103 102 97 80 73 74 76 75 74 75 79 80 83 83 82 88 97 98 95
28 31 34 38 43 46 50 55 57 63 72 90 94 98 99 101 105 109 108 107 105 105 84 95 83 74 72 74 75 76 79 79 86 88 85 88 93 100
32 34 38 43 46 49 52 56 59 63 71 83 96 95 101 103 109 109 111 112 110 110 112 101 94 76 82 76 75 76 80 78 81 89 92 91 87 92
34 35 42 46 47 50 51 54 59 68 74 78 87 95 98 100 102 114 127 118 122 117 108 104 94 96 94 83 74 74 73 79 82 86 88 89 88 87
36 39 44 46 45 48 48 51 58 67 72 73 82 91 93 100 102 108 113 125 120 83 116 119 117 111 104 84 86 87 79 86 88 87 86 86 84 89
39 42 46 47 47 52 50 43 50 64 64 70 78 80 84 90 100 98 95 103 124 117 122 124 109 107 105 107 91 77 89 101 98 94 96 93 88 86
43 45 47 45 50 52 54 56 70 66 62 68 71 71 83 90 89 97 95 95 107 118 104 109 111 117 108 101 98 95 97 93 93 97 104 98 88 87
43 47 50 47 53 47 55 72 74 74 74 67 58 71 80 78 71 76 79 90 103 105 84 89 104 107 109 119 105 97 83 83 90 90 93 91 87 85
45 48 51 47 52 48 62 75 80 80 76 60 71 77 74 71 67 68 79 82 96 104 95 87 100 100 107 117 97 85 93 98 86 84 82 78 74 72
48 51 54 51 48 54 62 73 82 78 76 87 84 79 74 73 69 66 69 74 79 94 90 83 99 91 90 106 101 110 102 88 83 81 64 61 63 66
52 56 56 54 52 61 61 73 70 68 82 83 85 83 79 77 75 73 68 65 73 81 82 70 87 94 83 92 118 111 90 92 81 77 60 63 65 65
54 58 56 48 63 67 73 69 60 68 76 78 79 80 81 83 81 78 75 69 66 70 74 57 77 86 85 98 106 104 94 85 80 70 64 70 68 65
55 57 56 70 75 77 74 72 69 69 69 72 75 77 77 80 80 81 80 77 73 71 60 55 62 77 76 85 91 91 87 100 77 81 79 72 70 59
59 64 68 73 75 76 78 75 70 66 65 67 72 74 76 78 79 77 84 85 85 81 67 59 61 73 81 79 74 74 74 90 86 75 72 62 55 57
56 67 74 77 80 79 77 74 71 68 67 66 69 73 75 78 77 74 75 79 81 84 85 74 71 78 75 67 59 54 76 80 70 70 56 47 44 44
65 72 75 76 76 75 75 75 72 71 69 68 69 70 74 77 77 74 72 72 79 78 80 77 80 93 84 71 40 55 75 75 68 63 44 24 8 17
66 70 72 72 72 71 71 71 73 71 69 67 68 69 71 74 74 74 71 72 75 75 75 73 70 78 74 76 82 60 65 68 63 46 34 8 30 42
69 71 71 70 69 68 68 69 70 69 65 63 64 66 70 72 73 69 68 70 73 74 78 73 66 73 70 72 72 67 45 51 50 28 21 34 42 57
70 70 68 66 65 64 63 63 62 61 60 63 66 67 69 70 71 67 65 64 67 68 76 77 67 66 58 55 50 48 38 30 21 26 18 40 55 69
68 67 65 61 57 56 56 56 57 58 61 62 64 69 71 71 71 67 61 63 65 65 74 73 64 62 56 50 46 39 36 36 19 5 21 26 27 27
63 62 57 52 50 50 51 55 59 61 62 62 67 68 70 73 68 62 59 57 61 63 73 75 62 57 54 45 39 33 28 31 26 12 5 15 12 45
Wind_Direction_850mb
4 2 358 354 348 344 341 344 347 335 329 329 321 333 335 335 337 335 334 333 332 331 330 328 325 322 315 307 297 294 294 292 285 277 269 273 252 257
360 355 351 346 343 340 338 338 336 333 318 324 331 333 335 335 337 337 336 335 334 334 331 329 325 320 318 312 304 298 298 297 292 282 276 280 256 256
349 347 343 340 340 338 338 337 336 336 329 325 328 332 333 335 335 335 335 336 334 334 330 321 319 315 312 307 302 298 291 288 290 289 280 273 269 253
344 341 341 343 339 338 339 338 335 334 332 328 332 335 335 336 334 335 334 334 332 333 327 328 324 317 314 309 304 298 293 285 282 284 286 278 267 264
346 343 341 340 338 338 337 334 334 333 336 332 329 334 336 338 334 333 332 332 332 331 331 331 330 319 318 312 306 301 296 288 280 280 280 281 278 266
345 342 341 339 338 337 337 337 335 336 334 332 331 332 334 335 333 333 330 332 330 331 332 332 324 320 322 319 314 310 306 297 294 283 285 284 279 274
344 342 341 338 338 338 337 339 333 331 331 330 327 329 331 334 333 331 326 327 327 331 328 322 325 323 322 317 315 311 304 299 294 290 290 288 281 272
342 341 340 339 337 338 337 334 325 327 329 327 324 324 328 326 325 324 320 322 321 325 325 322 324 319 316 314 313 303 296 295 290 286 284 286 284 277
340 342 340 339 340 339 343 323 328 331 329 325 324 324 318 322 322 321 320 319 316 318 324 319 321 317 318 314 310 306 303 300 295 288 284 285 287 279
337 342 342 340 340 344 328 322 328 330 329 325 319 310 315 318 313 313 314 315 314 318 321 311 320 317 316 312 311 311 308 304 298 292 286 283 281 278
338 340 340 338 338 335 322 325 326 327 323 317 315 316 316 318 321 318 323 322 319 318 322 320 319 315 312 314 316 311 309 313 311 303 291 285 279 278
335 337 339 333 334 329 325 322 322 325 321 317 317 316 318 321 326 328 326 321 318 316 324 319 315 316 315 312 311 310 321 320 323 320 295 287 284 286
331 334 333 331 328 326 323 321 320 317 313 315 316 319 321 323 327 329 329 323 319 313 320 314 316 313 310 308 309 316 321 325 323 319 313 303 294 280
329 328 329 325 321 321 320 320 316 314 316 316 319 322 324 324 326 327 329 327 323 317 322 328 310 314 311 311 308 318 319 324 321 318 312 301 290 277
326 323 321 322 320 320 322 322 321 321 322 322 322 323 323 323 323 326 328 329 324 327 331 329 316 320 316 310 310 316 317 323 324 315 313 305 294 279
324 321 319 318 319 320 322 326 327 327 326 324 322 323 323 325 326 330 330 331 329 328 333 335 327 332 322 323 319 315 316 321 326 324 321 311 298 293
308 315 320 322 324 326 327 327 328 329 329 327 325 324 325 325 326 328 331 331 332 332 333 337 338 335 331 333 325 323 324 332 335 334 325 307 279 268
316 321 322 324 326 328 328 328 330 331 330 328 326 326 326 326 326 327 331 334 333 334 335 338 339 337 336 336 340 330 339 340 339 338 321 322 41 143
318 322 324 326 329 328 328 330 330 330 329 329 328 328 327 328 327 327 330 334 334 335 336 339 334 335 329 324 333 344 335 341 340 341 338 14 74 98
323 324 326 328 329 329 330 330 329 332 334 331 330 330 331 330 328 328 329 332 334 336 335 339 338 332 326 318 321 333 353 351 348 357 47 87 93 105
324 326 327 327 329 330 332 333 335 338 338 335 333 332 333 332 331 329 327 330 334 337 328 334 337 337 332 332 331 336 345 341 355 9 99 110 104 106
323 322 324 327 330 333 336 336 337 339 339 336 334 333 332 331 332 329 327 328 332 337 328 334 338 341 341 338 332 328 327 342 335 23 134 131 120 116
321 322 326 329 333 335 335 335 335 336 337 335 334 333 332 332 333 330 327 327 331 336 333 335 337 342 340 337 333 332 326 336 347 339 150 166 162 155